Temperature
19 19 19 19 18 18 18 18 18 18 18 17 17 17 17 17 17 17 17 16 16 16 16 16 16 16 16 16 16 16 16 16 16 16 15 15 15 15 15 14 14 14 14
19 19 19 19 18 18 18 18 18 18 18 17 17 17 17 17 16 16 16 16 16 16 16 16 16 16 15 15 15 15 15 15 15 15 15 15 14 14 14 14 14 14 14
19 19 19 19 18 18 18 18 18 18 18 17 17 17 17 16 16 16 16 16 16 16 16 15 15 15 15 15 15 15 15 15 15 15 15 14 14 14 14 14 14 14 14
19 19 19 19 19 18 18 18 18 18 18 17 17 17 17 16 16 16 16 16 16 15 15 15 15 15 15 15 15 14 14 14 14 14 15 14 14 14 14 14 14 14 14
19 19 19 19 18 18 18 18 17 17 17 17 17 17 16 16 16 16 16 16 15 15 15 15 15 15 15 14 14 14 14 14 14 14 14 14 14 14 14 14 14 14 14
19 18 19 18 18 18 18 18 17 17 17 17 16 16 16 16 16 16 16 15 15 15 15 14 14 14 14 14 14 14 14 14 14 14 14 14 14 14 13 13 13 13 13
19 19 18 18 18 17 17 17 17 16 16 16 16 16 16 16 16 16 15 15 14 14 14 14 14 14 14 14 14 14 14 14 13 13 13 13 13 13 13 13 13 13 13
18 18 18 18 17 17 17 17 16 16 16 16 16 16 15 15 15 15 15 15 14 14 14 14 14 14 14 14 13 13 13 13 13 13 13 13 13 13 13 13 13 13 13
18 18 18 17 17 17 17 16 16 16 16 16 16 15 15 15 15 15 15 14 14 14 14 14 14 13 13 13 13 13 13 13 13 13 13 13 13 13 13 13 12 13 13
18 18 17 17 17 16 16 16 16 16 15 15 15 15 15 15 15 15 14 14 14 14 14 14 14 13 13 13 13 12 12 13 13 13 12 12 12 12 12 12 12 12 12
17 17 17 16 16 16 16 15 15 15 15 15 15 15 15 15 15 14 14 14 14 14 14 14 13 13 13 13 12 12 12 12 12 12 12 12 12 12 12 12 12 12 12
17 16 16 16 16 16 15 15 15 15 14 14 14 14 14 14 14 14 14 14 13 13 13 13 13 13 13 12 12 12 12 12 12 12 12 12 12 12 12 12 12 12 12
16 16 16 16 16 15 15 15 15 14 14 14 14 14 14 14 14 14 13 13 13 13 13 13 13 13 12 12 12 12 12 12 12 12 12 12 12 11 11 11 11 11 11
16 16 15 15 15 15 15 15 14 14 14 14 14 14 14 13 13 13 13 13 12 12 12 12 12 12 12 12 12 12 11 11 11 11 11 11 11 11 11 11 11 11 11
15 15 15 15 15 14 14 14 14 14 14 14 14 13 13 13 13 13 13 12 12 12 12 12 12 12 12 12 12 11 11 11 11 11 11 11 11 11 11 11 11 11 11
15 15 15 15 14 14 14 14 14 14 14 14 13 13 13 13 13 13 12 12 12 12 12 12 12 12 12 11 11 11 11 11 11 11 11 11 11 11 11 11 11 11 11
14 14 14 14 14 14 14 14 14 14 13 13 13 13 13 13 12 12 12 12 12 12 11 11 11 11 11 11 11 11 11 11 10 10 10 10 10 11 11 11 11 11 11
14 14 14 14 14 13 13 13 13 13 13 13 13 13 12 12 12 12 12 11 11 11 11 11 11 11 11 11 11 11 10 10 10 10 10 10 10 10 10 10 11 10 11
13 13 13 13 13 13 13 13 13 13 13 13 12 12 12 12 12 12 11 11 11 11 11 11 11 11 10 10 10 10 10 10 10 9 9 9 10 10 10 10 10 10 10
13 13 13 13 13 12 12 12 12 12 12 12 12 12 12 12 12 11 11 11 11 11 11 11 10 10 10 10 10 10 10 9 9 9 9 9 9 9 10 10 10 10 10
13 13 13 12 12 12 12 12 12 12 12 12 12 12 12 11 11 11 11 11 11 11 10 10 10 10 10 9 9 9 9 9 9 9 9 9 9 9 9 9 10 10 10
13 12 12 12 12 12 12 12 12 12 12 12 12 11 11 11 11 11 11 11 10 10 10 10 10 10 9 9 9 9 9 9 9 9 9 9 9 9 9 9 9 9 9
12 12 12 12 12 12 12 12 12 12 11 11 11 11 11 11 11 11 10 10 10 10 10 10 9 9 9 9 9 9 9 9 9 9 8 8 8 9 9 9 9 9 9
12 12 12 12 12 11 12 11 11 11 11 11 11 11 10 10 10 10 10 10 10 10 9 9 9 9 9 9 9 9 9 8 8 8 8 8 8 8 8 8 9 9 9
12 11 11 11 11 11 11 11 11 11 11 11 10 10 10 10 10 10 10 10 9 9 9 9 9 9 9 9 8 8 8 8 8 8 8 8 8 8 8 8 8 8 9
11 11 11 11 11 11 11 11 11 11 10 10 10 10 10 10 10 10 9 9 9 9 9 9 9 9 9 9 8 8 8 8 8 8 8 8 8 8 8 8 8 8 8
Wind_Speed
7 7 6 6 6 6 5 5 5 4 4 4 4 3 3 3 3 3 2 2 2 1 2 1 2 2 2 2 2 3 3 3 4 3 2 1 1 2 1 2 3 4 5
8 7 6 6 6 6 6 5 5 5 5 5 4 4 4 3 3 3 3 3 3 3 3 2 3 2 2 3 2 3 2 3 4 3 3 2 2 2 2 3 3 3 3
8 7 7 6 6 5 5 5 5 5 4 4 4 4 4 4 4 4 4 4 4 3 3 3 3 3 3 2 3 3 3 3 3 4 4 2 2 2 3 3 3 2 4
8 7 7 6 5 5 4 4 4 5 5 5 5 5 5 5 5 5 5 5 4 4 4 4 4 4 3 3 3 3 3 3 3 4 4 3 2 2 3 3 3 3 4
8 7 7 6 6 5 4 4 4 5 5 5 5 5 5 6 5 5 5 5 5 5 5 5 4 3 3 4 4 3 4 4 4 4 4 4 3 3 3 4 4 3 4
7 7 6 6 6 5 5 5 4 4 4 5 5 5 6 5 2 2 5 5 5 5 5 5 5 5 4 5 5 5 5 5 5 5 5 5 5 5 4 4 4 4 4
6 6 6 6 5 5 5 4 4 4 4 5 5 6 5 4 4 4 5 6 5 5 5 5 5 4 5 5 5 7 6 6 7 7 7 7 6 5 5 6 5 5 5
6 5 5 5 5 4 4 4 4 4 4 5 5 5 5 4 6 5 6 7 6 6 6 6 5 5 4 5 6 5 5 5 6 7 7 7 6 4 5 6 6 6 5
6 5 5 5 5 5 5 5 4 4 4 4 4 4 4 4 5 6 6 5 5 6 5 5 5 5 2 3 5 5 5 5 4 4 5 5 5 5 5 4 5 5 5
5 5 5 5 5 5 5 4 3 3 4 4 3 2 3 3 4 5 6 5 5 5 4 5 3 3 2 3 5 5 5 5 5 4 5 6 6 6 7 7 6 5 5
4 4 4 4 5 4 4 4 4 3 3 3 3 2 2 2 4 5 6 5 5 5 4 3 1 4 2 3 5 5 5 6 6 6 5 4 4 4 5 5 5 6 5
4 4 4 4 4 4 4 4 4 3 4 4 3 3 2 2 2 3 5 4 5 4 4 3 0 3 3 5 5 4 5 7 5 5 5 4 4 4 4 4 5 5 5
4 3 3 4 4 3 4 4 4 4 4 4 3 3 2 1 2 5 5 4 3 4 3 1 0 4 5 5 6 6 7 5 4 4 4 5 4 4 4 4 4 5 6
4 3 3 4 4 3 3 3 3 4 4 3 3 3 2 2 1 1 2 2 4 4 3 2 5 7 6 4 5 5 5 4 4 4 4 4 4 4 4 4 4 4 4
4 4 4 4 3 3 3 2 3 2 2 3 3 3 3 2 1 1 2 2 3 2 3 4 4 4 4 4 4 4 4 4 4 4 4 4 4 4 4 3 4 4 4
4 4 4 3 3 3 3 2 2 1 1 1 2 3 1 1 2 1 1 2 2 3 5 5 4 4 4 4 4 4 4 4 4 4 4 4 4 4 4 4 4 4 5
4 4 3 3 3 4 3 3 2 1 3 4 4 3 3 3 2 3 3 3 5 6 6 5 4 4 4 4 4 4 4 3 3 4 4 4 5 5 4 4 4 4 5
4 3 3 3 3 3 3 3 3 3 2 1 3 6 6 6 5 5 4 4 4 5 5 4 4 4 4 4 4 4 4 4 4 4 4 4 5 5 5 5 5 5 6
4 3 3 3 3 3 3 3 3 3 3 2 2 3 6 6 6 6 6 5 5 4 4 4 5 5 5 4 4 4 5 4 4 5 5 5 5 6 5 6 6 6 7
3 2 3 3 3 3 3 3 3 3 3 3 3 2 2 3 3 4 4 4 5 5 4 5 5 5 5 5 5 5 5 5 5 5 5 5 6 6 6 6 6 6 6
3 3 4 4 3 3 3 3 3 3 3 3 3 2 2 4 4 4 4 4 4 4 4 4 4 5 5 5 5 5 6 5 5 5 5 5 6 6 6 6 6 6 6
3 3 3 3 3 3 3 4 4 3 3 3 3 2 4 5 4 4 4 4 4 4 4 4 4 4 4 4 5 5 6 6 5 5 5 5 5 6 6 6 6 6 6
3 3 3 3 3 3 4 4 4 4 4 4 3 3 3 3 4 3 3 4 3 3 4 4 4 4 4 4 5 5 6 6 5 5 5 6 6 6 6 6 7 7 6
4 4 4 4 4 4 5 4 4 4 4 4 3 3 3 4 4 4 4 4 4 4 4 4 4 5 6 5 5 5 5 5 6 6 7 7 7 6 6 6 7 7 6
4 4 4 4 4 4 4 4 4 4 4 4 4 4 4 4 4 4 4 4 4 4 5 5 4 5 6 6 6 5 2 3 4 6 7 7 7 7 7 7 6 6 6
3 3 3 3 3 3 3 4 4 4 3 3 4 4 4 4 4 4 4 4 4 4 4 4 5 5 6 6 5 3 0 1 4 7 8 7 7 6 6 6 7 7 6
Wind_Direction
188 190 187 189 191 194 197 201 204 208 205 207 208 207 207 209 212 220 235 233 244 260 272 261 266 286 275 271 270 271 270 269 264 278 282 252 227 261 230 236 225 208 190
181 183 187 188 190 193 191 195 195 198 203 202 202 202 208 211 220 225 233 230 234 238 245 254 256 253 262 274 273 269 276 275 264 272 280 259 235 233 229 240 237 225 221
176 179 182 186 188 192 191 191 194 196 201 204 205 210 216 220 226 228 231 235 237 240 243 246 249 253 261 273 267 265 262 258 263 265 267 263 253 243 243 241 239 243 239
179 179 183 189 190 189 191 191 196 196 198 204 209 214 218 221 225 230 231 234 238 239 241 244 247 246 253 263 262 266 268 265 255 259 266 258 248 245 246 250 247 231 248
182 185 184 185 184 183 189 195 204 209 208 209 215 216 223 225 225 229 234 233 235 239 241 245 245 249 280 278 276 270 265 264 261 261 263 266 259 260 254 259 258 250 239
187 189 185 184 182 185 192 198 205 213 218 217 220 224 229 233 179 206 245 244 240 240 243 248 245 231 240 247 263 270 274 264 273 277 270 272 265 258 258 259 265 258 251
183 186 184 186 190 195 199 201 212 222 223 224 226 225 229 222 180 204 236 249 245 245 245 246 253 247 238 257 243 226 237 242 251 266 276 281 278 268 257 256 257 264 265
184 185 187 189 195 196 198 207 217 224 227 233 235 234 236 218 183 208 231 240 247 244 242 242 248 256 259 269 267 261 257 250 247 254 266 274 280 281 260 256 257 255 258
182 186 190 196 200 203 204 209 214 221 223 228 229 235 238 225 188 207 233 240 239 242 240 240 245 253 254 267 264 265 265 265 242 237 255 265 281 275 268 263 254 252 259
186 190 197 203 207 207 207 210 211 214 218 226 225 230 230 224 172 193 226 243 245 250 241 234 213 236 241 241 251 257 262 270 269 257 245 246 252 247 233 245 255 255 260
180 188 197 204 208 209 211 213 212 213 217 225 225 226 224 216 175 186 220 247 257 259 261 256 213 144 203 248 262 263 271 274 266 263 262 260 257 254 247 241 247 252 257
181 195 205 211 220 207 206 211 208 211 211 212 217 232 228 206 172 172 202 234 285 270 271 273 196 146 212 242 253 267 270 265 265 269 270 267 264 264 262 258 251 251 260
181 196 207 210 216 215 217 217 215 217 231 230 226 231 231 215 152 153 178 199 237 259 274 357 206 209 227 229 221 238 248 256 265 268 270 274 276 276 268 255 247 240 243
187 193 198 202 206 204 230 235 238 237 239 243 241 236 227 212 214 181 199 202 209 235 263 223 202 216 233 245 232 233 248 263 269 273 276 280 281 275 265 265 262 254 251
194 197 202 201 194 199 213 250 249 267 273 262 258 249 246 239 161 76 251 245 252 259 264 252 249 242 243 249 252 256 259 256 260 269 275 278 279 279 277 275 271 265 259
209 213 211 203 195 204 201 206 98 214 132 201 262 272 261 109 112 159 239 262 260 247 252 247 250 251 252 256 258 257 256 261 268 270 272 276 276 276 272 268 265 262 264
222 223 223 216 207 214 215 220 226 195 171 183 192 202 212 207 202 219 226 233 237 229 241 248 251 252 255 256 257 261 266 268 272 272 275 274 274 274 271 268 269 266 264
219 214 225 225 226 224 226 229 230 230 226 226 189 182 191 199 207 219 218 217 234 230 243 249 252 252 251 253 255 258 263 266 266 270 270 269 270 271 272 267 264 269 268
222 224 225 233 227 225 226 230 232 224 226 231 230 180 181 191 203 218 215 236 246 242 243 247 251 251 250 251 255 258 261 264 265 266 264 263 265 265 266 269 267 254 260
227 198 226 232 225 216 217 222 226 224 228 232 235 234 200 213 230 221 222 240 251 255 255 253 251 251 251 253 252 254 255 253 254 258 263 261 259 260 260 264 270 269 265
232 201 203 228 229 223 225 228 226 229 233 245 249 225 222 245 251 249 246 241 249 256 257 257 253 250 248 250 252 250 252 256 259 263 263 262 263 263 263 261 261 264 268
233 223 220 228 228 228 235 236 234 229 232 246 254 222 210 244 257 258 254 252 251 251 255 256 255 252 255 255 252 253 253 256 259 262 265 265 262 259 260 264 266 267 267
235 227 231 238 238 229 237 241 236 234 236 240 244 246 239 248 252 252 259 265 261 259 256 253 259 262 259 261 263 260 259 260 263 267 265 262 261 258 257 258 260 265 266
237 233 235 241 242 241 243 245 243 235 234 238 239 240 245 252 259 259 262 266 260 258 256 251 251 258 263 265 265 266 269 279 273 261 258 261 263 264 262 258 258 260 263
239 237 239 242 245 245 247 247 246 246 243 242 241 241 243 245 251 257 262 261 258 259 259 256 253 252 254 257 265 274 325 348 303 283 258 256 258 260 261 264 266 269 264
242 241 245 242 241 242 244 246 247 248 247 246 245 243 246 250 255 261 262 261 262 263 262 256 255 257 257 254 256 260 250 259 272 279 268 257 258 258 260 260 261 260 262
Height
1516 1517 1518 1520 1521 1521 1522 1523 1524 1525 1526 1526 1526 1527 1527 1527 1527 1527 1528 1527 1527 1527 1527 1526 1526 1526 1526 1526 1526 1525 1525 1525 1524 1524 1523 1522 1521 1521 1521 1521 1521 1520 1520
1513 1515 1516 1517 1519 1519 1520 1521 1522 1522 1523 1524 1524 1524 1525 1525 1525 1525 1526 1525 1525 1525 1525 1524 1524 1524 1524 1524 1523 1523 1523 1522 1522 1521 1521 1520 1519 1519 1518 1518 1519 1519 1518
1511 1513 1514 1515 1516 1517 1518 1519 1519 1520 1521 1522 1522 1522 1522 1522 1522 1523 1523 1523 1523 1523 1523 1523 1522 1522 1522 1521 1521 1521 1520 1520 1520 1519 1519 1518 1517 1517 1516 1516 1516 1516 1516
1509 1510 1512 1513 1514 1515 1516 1516 1517 1518 1518 1519 1519 1519 1519 1519 1520 1520 1520 1520 1520 1520 1520 1520 1520 1520 1520 1519 1519 1518 1518 1518 1517 1517 1516 1516 1515 1514 1514 1514 1514 1513 1513
1507 1508 1509 1510 1512 1512 1513 1514 1514 1515 1515 1515 1515 1515 1516 1517 1517 1517 1517 1518 1517 1517 1518 1518 1518 1517 1517 1517 1517 1516 1515 1515 1515 1514 1514 1513 1513 1512 1511 1511 1511 1511 1510
1504 1506 1507 1508 1509 1509 1510 1510 1511 1511 1512 1512 1512 1513 1513 1514 1514 1514 1514 1514 1514 1514 1514 1514 1514 1514 1514 1513 1513 1512 1512 1512 1512 1511 1511 1510 1509 1509 1508 1508 1508 1508 1508
1501 1503 1504 1505 1505 1506 1507 1507 1508 1508 1509 1509 1509 1509 1510 1510 1510 1510 1511 1511 1512 1511 1511 1511 1512 1512 1511 1510 1509 1509 1508 1508 1508 1508 1508 1506 1506 1506 1505 1505 1505 1504 1504
1499 1500 1501 1501 1502 1503 1504 1504 1505 1505 1506 1506 1506 1506 1506 1506 1506 1507 1507 1508 1509 1508 1508 1508 1508 1507 1507 1506 1506 1506 1505 1504 1504 1504 1503 1503 1502 1502 1501 1502 1501 1501 1500
1496 1496 1498 1499 1499 1500 1501 1501 1502 1502 1502 1503 1503 1502 1502 1503 1503 1504 1504 1505 1505 1505 1505 1504 1504 1504 1502 1502 1502 1502 1501 1501 1501 1500 1499 1499 1498 1498 1498 1498 1497 1498 1497
1493 1494 1495 1496 1497 1497 1497 1498 1499 1499 1499 1500 1500 1499 1499 1499 1499 1500 1501 1501 1502 1502 1501 1501 1500 1500 1499 1498 1498 1499 1498 1498 1497 1497 1496 1495 1495 1494 1494 1494 1494 1494 1494
1490 1491 1493 1493 1494 1494 1495 1495 1496 1496 1496 1496 1496 1496 1496 1496 1495 1496 1497 1497 1499 1499 1499 1498 1497 1496 1495 1495 1495 1496 1495 1495 1494 1494 1493 1493 1492 1492 1491 1491 1491 1491 1491
1487 1489 1490 1491 1491 1492 1492 1492 1492 1493 1493 1493 1493 1493 1493 1493 1492 1493 1493 1494 1495 1495 1496 1495 1494 1493 1493 1492 1492 1492 1492 1492 1492 1492 1491 1490 1490 1489 1489 1488 1487 1487 1486
1485 1486 1487 1487 1488 1488 1489 1490 1490 1490 1491 1491 1491 1491 1491 1491 1490 1490 1490 1491 1491 1492 1492 1491 1491 1490 1490 1490 1489 1489 1489 1489 1489 1488 1488 1488 1487 1486 1485 1485 1484 1483 1483
1482 1483 1484 1484 1485 1485 1486 1486 1487 1488 1488 1488 1488 1488 1488 1488 1488 1488 1488 1488 1488 1489 1489 1488 1488 1487 1487 1487 1487 1487 1487 1486 1486 1486 1485 1485 1484 1483 1483 1482 1482 1482 1481
1479 1480 1481 1481 1482 1482 1483 1483 1484 1484 1484 1484 1484 1484 1484 1485 1485 1485 1485 1485 1485 1485 1485 1485 1485 1485 1485 1485 1485 1484 1484 1484 1483 1483 1482 1482 1481 1481 1480 1479 1479 1479 1478
1476 1476 1477 1478 1479 1479 1480 1480 1479 1481 1480 1481 1481 1481 1481 1482 1482 1482 1482 1482 1482 1482 1482 1482 1483 1483 1482 1482 1481 1481 1481 1481 1480 1479 1479 1479 1478 1478 1477 1477 1476 1476 1475
1473 1474 1474 1475 1476 1476 1476 1476 1477 1477 1477 1477 1478 1478 1478 1478 1479 1479 1479 1479 1479 1479 1479 1480 1479 1479 1479 1479 1478 1478 1478 1477 1476 1476 1476 1476 1475 1475 1474 1474 1473 1473 1472
1470 1471 1471 1472 1472 1473 1473 1473 1474 1474 1474 1475 1475 1475 1475 1476 1476 1476 1476 1476 1476 1476 1476 1476 1476 1476 1475 1475 1475 1474 1474 1474 1473 1473 1472 1472 1472 1471 1471 1470 1470 1469 1469
1468 1468 1469 1469 1469 1469 1470 1470 1471 1471 1472 1472 1472 1472 1473 1473 1473 1473 1473 1474 1474 1473 1473 1473 1472 1472 1472 1471 1471 1470 1470 1470 1469 1469 1469 1468 1468 1468 1468 1467 1467 1466 1466
1465 1465 1465 1466 1466 1466 1467 1468 1468 1469 1469 1469 1469 1470 1470 1470 1470 1471 1471 1470 1470 1470 1470 1469 1468 1468 1468 1467 1467 1466 1466 1466 1465 1465 1465 1465 1465 1465 1464 1464 1464 1463 1463
1462 1462 1462 1463 1464 1464 1465 1465 1466 1466 1466 1466 1466 1466 1467 1468 1468 1468 1468 1467 1467 1466 1466 1465 1465 1464 1464 1463 1463 1462 1462 1462 1462 1462 1461 1461 1461 1461 1461 1461 1460 1460 1459
1460 1460 1461 1461 1462 1462 1462 1462 1463 1463 1463 1463 1464 1464 1464 1465 1465 1465 1464 1464 1463 1462 1462 1461 1461 1461 1460 1460 1459 1459 1458 1458 1458 1457 1457 1457 1457 1457 1457 1457 1457 1457 1457
1458 1458 1458 1459 1459 1459 1459 1459 1459 1460 1460 1460 1461 1461 1461 1461 1461 1461 1460 1460 1459 1459 1458 1457 1457 1457 1456 1456 1455 1455 1454 1454 1454 1453 1453 1453 1453 1453 1453 1453 1453 1453 1453
1455 1456 1456 1456 1456 1456 1456 1456 1456 1456 1457 1457 1457 1457 1458 1457 1457 1457 1456 1456 1455 1455 1454 1453 1453 1452 1452 1451 1451 1450 1450 1450 1449 1449 1449 1449 1449 1449 1450 1450 1450 1450 1449
1453 1453 1453 1453 1453 1453 1453 1453 1453 1453 1453 1453 1453 1453 1454 1453 1453 1453 1452 1452 1451 1451 1450 1449 1449 1448 1448 1447 1446 1446 1446 1445 1445 1445 1445 1445 1445 1445 1445 1446 1446 1446 1446
1451 1451 1451 1450 1450 1450 1450 1449 1449 1449 1449 1449 1449 1449 1449 1449 1449 1449 1448 1448 1447 1446 1446 1445 1445 1444 1443 1443 1442 1442 1441 1441 1441 1441 1441 1441 1441 1441 1441 1442 1442 1442 1442